This is the latest recevied weather packets stored in our database for station/object WC4PEM-9. If no packets are shown the sender has not sent any weather packets the latest 1 day(s).
| Time | Temp. | Humidity | Pressure | Rain* | Wind** | Luminosity | Snow |
|---|---|---|---|---|---|---|---|
| 1778031304 | 22.22° C | 70% | 1015.3 hPa | 0 mm | - | - | - |
| 1778031304 | 22.78° C | 70% | 1015.3 hPa | 0 mm | - | - | - |
| 1778031206 | 22.22° C | 70% | 1015.3 hPa | 0 mm | - | - | - |
| 1778031138 | 22.78° C | 70% | 1015.3 hPa | 0 mm | - | - | - |
| 1778030906 | 22.78° C | 70% | 1015.3 hPa | 0 mm | - | - | - |
| 1778030606 | 22.78° C | 70% | 1015.2 hPa | 0 mm | - | - | - |
| 1778030441 | 22.78° C | 70% | 1015.2 hPa | 0 mm | - | - | - |
| 1778030306 | 22.78° C | 70% | 1015.2 hPa | 0 mm | - | - | - |
| 1778030006 | 23.33° C | 69% | 1014.9 hPa | 0 mm | - | - | - |
| 1778029706 | 23.33° C | 68% | 1015.1 hPa | 0 mm | - | - | - |
| 1778029243 | 23.33° C | 67% | 1014.9 hPa | 0 mm | - | - | - |
| 1778029106 | 23.33° C | 67% | 1014.9 hPa | 0 mm | - | - | - |
| 1778028506 | 23.33° C | 68% | 1014.7 hPa | 0 mm | - | - | - |
| 1778027494 | 23.89° C | 67% | 1014.7 hPa | 0 mm | - | - | - |
| 1778025207 | 25.56° C | 63% | 1014.1 hPa | 0 mm | - | - | - |
| 1778024907 | 26.11° C | 63% | 1014.1 hPa | 0 mm | - | - | - |
| 1778024607 | 26.11° C | 62% | 1014 hPa | 0 mm | - | - | - |
| 1778024307 | 26.11° C | 62% | 1013.9 hPa | 0 mm | - | - | - |
| 1778024007 | 26.67° C | 60% | 1013.9 hPa | 0 mm | - | - | - |
| 1778023707 | 26.67° C | 60% | 1013.7 hPa | 0 mm | - | - | - |
| 1778023407 | 27.22° C | 60% | 1013.8 hPa | 0 mm | - | - | - |
| 1778023107 | 27.22° C | 60% | 1013.5 hPa | 0 mm | - | - | - |
| 1778022807 | 27.22° C | 59% | 1013.6 hPa | 0 mm | - | - | - |
| 1778022507 | 27.78° C | 59% | 1013.9 hPa | 0 mm | - | - | - |
| 1778022207 | 27.78° C | 57% | 1013.9 hPa | 0 mm | - | - | - |
* Rain latest hour (hover to see other rain measurements)
** Current wind speed in m/s (hover to see current wind gust speed)